�N����,����,�~����,�C��,���x,�C��,����,���ϕ���,�ő�u�ԕ���,�ő厞����,���˗�,�I�_���x,�n�����x,�ő啗���N��,DTYPE
"18/07/17","00:10",0.0,27.4,84.7,1005.2,282.7,0.2,0.8,336.8,0.00,24.6,27.7,"00:00:32",1
"18/07/17","00:20",0.0,27.3,85.7,1005.0,322.4,0.7,1.4,298.0,0.00,24.7,27.6,"00:17:52",1
"18/07/17","00:30",0.0,27.2,85.9,1005.0,311.3,0.6,1.7,315.7,0.00,24.7,27.6,"00:24:16",1
"18/07/17","00:40",0.0,27.1,86.3,1004.8,290.8,0.6,1.2,308.9,0.00,24.7,27.5,"00:34:16",1
"18/07/17","00:50",0.0,27.1,86.3,1005.2,308.1,0.6,1.1,321.1,0.00,24.7,27.4,"00:47:12",1
"18/07/17","01:00",0.0,27.0,86.3,1005.2,335.4,0.8,1.3,343.0,0.00,24.6,27.4,"00:57:20",1
"18/07/17","01:10",0.0,27.0,86.4,1004.5,325.0,0.7,1.0,351.5,0.00,24.6,27.3,"01:02:40",1
"18/07/17","01:20",0.0,26.8,87.0,1005.0,280.0,0.6,1.2,330.5,0.00,24.5,27.3,"01:12:00",1
"18/07/17","01:30",0.0,26.7,87.2,1005.2,295.0,0.7,1.2,326.7,0.00,24.4,27.2,"01:26:32",1
"18/07/17","01:40",0.0,26.8,87.1,1005.2,313.3,1.1,2.0,334.5,0.00,24.5,27.2,"01:30:24",1
"18/07/17","01:50",0.0,26.8,87.0,1005.0,332.8,1.1,2.0,330.0,0.00,24.5,27.1,"01:41:36",1
"18/07/17","02:00",0.0,26.8,86.9,1005.0,330.9,1.3,2.7,343.9,0.00,24.5,27.0,"01:54:40",1
"18/07/17","02:10",0.0,26.8,86.8,1005.5,332.3,1.2,2.1,334.1,0.00,24.5,27.2,"02:02:56",1
"18/07/17","02:20",0.0,26.7,87.0,1005.2,328.3,1.5,2.7,328.1,0.00,24.4,27.0,"02:19:52",1
"18/07/17","02:30",0.0,26.6,87.2,1005.7,326.2,1.2,2.2,326.2,0.00,24.3,27.1,"02:20:48",1
"18/07/17","02:40",0.0,26.5,87.5,1005.7,336.4,1.3,2.6,347.9,0.00,24.3,26.9,"02:32:16",1
"18/07/17","02:50",0.0,26.5,87.6,1005.7,330.7,1.2,2.4,336.2,0.00,24.3,26.8,"02:40:16",1
"18/07/17","03:00",0.0,26.4,87.9,1005.7,335.0,1.1,2.1,344.8,0.00,24.3,27.0,"02:54:48",1
"18/07/17","03:10",0.0,26.4,88.0,1006.0,323.9,1.2,2.1,336.2,0.00,24.3,26.9,"03:04:24",1
"18/07/17","03:20",0.0,26.3,88.0,1006.0,320.1,1.2,1.9,324.7,0.00,24.2,26.8,"03:16:24",1
"18/07/17","03:30",0.0,26.3,88.1,1006.0,300.7,1.0,2.6,311.0,0.00,24.2,26.8,"03:22:24",1
"18/07/17","03:40",0.0,26.2,88.0,1006.2,299.1,0.6,1.2,344.2,0.00,24.1,26.6,"03:30:24",1
"18/07/17","03:50",0.0,26.0,88.5,1006.0,310.0,0.7,1.4,320.6,0.00,24.0,26.8,"03:44:16",1
"18/07/17","04:00",0.0,25.9,89.0,1006.0,310.1,0.8,1.7,332.2,0.00,24.0,26.8,"03:59:20",1
"18/07/17","04:10",0.0,26.0,88.9,1006.2,307.0,1.1,2.8,334.5,0.00,24.1,26.8,"04:01:28",1
"18/07/17","04:20",0.0,25.9,88.9,1006.2,299.7,0.7,1.3,315.3,0.00,24.0,26.6,"04:15:44",1
"18/07/17","04:30",0.0,25.9,88.9,1006.0,303.0,0.7,1.4,315.4,0.00,24.0,26.9,"04:25:52",1
"18/07/17","04:40",0.0,25.8,89.0,1006.2,294.7,0.5,2.0,339.1,0.00,23.9,26.6,"04:39:44",1
"18/07/17","04:50",0.0,25.7,89.0,1006.4,303.9,0.7,1.7,336.0,0.00,23.8,26.6,"04:40:16",1
"18/07/17","05:00",0.0,25.5,89.5,1006.2,269.2,0.1,0.5,145.8,0.00,23.7,26.4,"04:56:32",1
"18/07/17","05:10",0.0,25.5,90.1,1006.4,313.8,1.0,2.1,340.2,0.00,23.8,26.7,"05:09:36",1
"18/07/17","05:20",0.0,25.7,90.0,1006.2,328.9,1.5,2.8,335.1,0.00,24.0,26.5,"05:19:28",1
"18/07/17","05:30",0.0,25.9,89.7,1006.2,324.4,2.0,2.8,325.7,0.00,24.1,26.4,"05:27:52",1
"18/07/17","05:40",0.0,26.1,89.2,1006.2,295.0,1.1,2.5,331.4,0.00,24.2,26.6,"05:30:48",1
"18/07/17","05:50",0.0,26.1,89.1,1006.7,296.0,0.7,1.7,318.3,0.00,24.2,26.4,"05:49:52",1
"18/07/17","06:00",0.0,26.2,88.9,1006.7,326.1,1.6,2.7,333.9,0.01,24.3,26.3,"05:53:20",1
"18/07/17","06:10",0.0,26.4,88.5,1006.4,322.5,1.1,1.8,321.7,0.01,24.4,26.4,"06:00:32",1
"18/07/17","06:20",0.0,26.5,88.2,1006.4,339.1,1.0,2.4,346.1,0.02,24.4,26.2,"06:10:48",1
"18/07/17","06:30",0.0,27.0,87.7,1006.4,347.9,0.5,1.0,351.7,0.03,24.8,26.4,"06:26:56",1
"18/07/17","06:40",0.0,27.4,86.4,1006.4,356.2,0.5,1.1,356.7,0.05,25.0,26.3,"06:39:12",1
"18/07/17","06:50",0.0,27.8,85.4,1006.4,9.9,0.5,1.1,357.2,0.05,25.2,26.2,"06:48:40",1
"18/07/17","07:00",0.0,28.3,84.0,1006.4,357.5,0.3,1.1,5.5,0.06,25.4,26.4,"06:51:12",1
"18/07/17","07:10",0.0,28.5,81.9,1006.4,359.6,0.2,1.0,351.1,0.06,25.1,26.4,"07:03:52",1
"18/07/17","07:20",0.0,28.7,81.4,1005.7,339.0,0.2,0.8,350.4,0.09,25.2,26.5,"07:15:28",1
"18/07/17","07:30",0.0,29.1,79.1,1006.2,3.4,0.2,1.0,350.6,0.13,25.1,26.5,"07:27:28",1
"18/07/17","07:40",0.0,29.6,76.2,1006.4,56.0,0.2,0.9,41.2,0.14,25.0,26.6,"07:36:00",1
"18/07/17","07:50",0.0,29.6,77.6,1006.9,129.8,0.2,1.1,197.5,0.16,25.3,26.5,"07:45:28",1
"18/07/17","08:00",0.0,30.1,74.6,1007.1,54.8,0.2,0.9,218.8,0.19,25.1,26.8,"07:50:16",1
"18/07/17","08:10",0.0,30.5,73.3,1007.1,137.6,0.3,1.1,18.5,0.21,25.2,26.8,"08:00:02",1
"18/07/17","08:20",0.0,30.6,72.2,1007.4,18.4,0.6,1.9,0.2,0.23,25.1,26.9,"08:16:16",1
"18/07/17","08:30",0.0,30.8,71.1,1007.4,40.8,0.7,1.6,83.6,0.26,25.0,26.8,"08:27:52",1
"18/07/17","08:40",0.0,31.4,70.5,1007.4,51.5,0.6,1.6,34.0,0.28,25.4,27.1,"08:31:52",1
"18/07/17","08:50",0.0,31.2,69.7,1007.6,108.0,0.6,1.7,29.1,0.30,25.0,27.2,"08:45:20",1
"18/07/17","09:00",0.0,31.6,68.9,1008.3,136.4,0.7,2.5,121.9,0.31,25.2,27.1,"08:54:56",1
"18/07/17","09:10",0.0,31.9,73.1,1008.3,140.4,0.8,1.8,119.2,0.33,26.5,27.4,"09:02:56",1
"18/07/17","09:20",0.0,31.9,68.8,1008.1,141.9,0.7,2.2,142.9,0.34,25.5,27.2,"09:19:44",1
"18/07/17","09:30",0.0,32.3,69.1,1008.3,126.7,0.7,3.4,123.2,0.34,25.9,27.5,"09:22:08",1
"18/07/17","09:40",0.0,32.6,68.5,1008.1,122.9,1.0,2.2,200.7,0.40,26.1,27.7,"09:32:00",1
"18/07/17","09:50",0.0,32.5,68.2,1008.6,113.0,1.1,2.4,114.9,0.40,25.9,27.8,"09:40:08",1
"18/07/17","10:00",0.0,32.7,68.3,1008.3,139.1,1.1,2.4,166.5,0.42,26.1,27.9,"09:59:52",1
"18/07/17","10:10",0.0,33.0,67.0,1008.3,125.4,1.0,2.1,108.9,0.43,26.1,27.8,"10:00:48",1
"18/07/17","10:20",0.0,32.6,68.5,1008.6,159.0,1.1,2.1,183.9,0.37,26.1,28.1,"10:13:28",1
"18/07/17","10:30",0.0,33.1,66.4,1008.6,174.9,1.0,2.4,206.6,0.40,26.0,28.4,"10:20:08",1
"18/07/17","10:40",0.0,33.0,63.7,1008.1,168.2,1.1,2.8,176.7,0.49,25.2,28.5,"10:36:48",1
"18/07/17","10:50",0.0,33.3,62.8,1008.6,167.6,1.1,2.0,179.6,0.52,25.3,28.8,"10:47:36",1
"18/07/17","11:00",0.0,34.0,63.2,1008.3,127.0,1.0,1.9,84.5,0.49,26.0,28.9,"10:57:12",1
"18/07/17","11:10",0.0,34.1,62.5,1008.3,77.1,0.8,2.1,62.9,0.49,26.0,29.1,"11:05:44",1
"18/07/17","11:20",0.0,34.3,60.4,1008.3,319.4,0.7,2.4,344.4,0.52,25.6,29.2,"11:12:24",1
"18/07/17","11:30",0.0,33.9,62.4,1008.3,168.1,1.0,2.6,254.6,0.37,25.7,29.3,"11:24:48",1
"18/07/17","11:40",0.0,35.0,62.0,1008.1,117.9,0.8,2.9,174.8,0.55,26.7,29.6,"11:37:44",1
"18/07/17","11:50",0.0,35.1,60.8,1008.3,183.5,1.1,3.2,191.2,0.57,26.4,29.8,"11:46:00",1
"18/07/17","12:00",0.0,34.5,60.2,1008.1,344.4,1.1,3.3,11.2,0.33,25.7,29.7,"11:54:32",1
"18/07/17","12:10",0.0,34.7,60.1,1007.6,7.8,0.8,2.1,29.0,0.29,25.9,29.8,"12:07:44",1
"18/07/17","12:20",0.0,35.5,57.9,1007.1,40.0,0.5,1.4,349.9,0.48,26.0,30.0,"12:18:00",1
"18/07/17","12:30",0.0,35.5,56.7,1007.6,265.9,0.8,2.0,318.3,0.62,25.6,30.0,"12:25:12",1
"18/07/17","12:40",0.0,35.9,60.2,1007.4,225.4,1.1,3.1,229.7,0.54,27.0,30.3,"12:33:44",1
"18/07/17","12:50",0.0,35.7,59.4,1007.8,216.3,1.2,3.7,216.3,0.56,26.6,30.6,"12:49:12",1
"18/07/17","13:00",0.0,35.4,55.9,1007.4,353.0,1.2,3.3,341.7,0.46,25.3,30.5,"12:59:28",1
"18/07/17","13:10",0.0,35.1,55.1,1007.1,318.1,0.8,2.4,334.6,0.29,24.8,30.7,"13:00:48",1
"18/07/17","13:20",0.0,35.4,55.1,1006.7,281.8,0.7,1.8,226.3,0.36,25.0,30.8,"13:19:36",1
"18/07/17","13:30",0.0,35.3,55.1,1006.4,227.7,1.1,2.5,245.6,0.32,25.0,30.8,"13:27:12",1
"18/07/17","13:40",0.0,35.7,55.5,1006.2,238.0,1.3,3.9,217.6,0.35,25.4,30.6,"13:30:56",1
"18/07/17","13:50",0.0,36.1,55.2,1006.2,233.7,1.1,3.6,211.7,0.52,25.7,30.6,"13:44:00",1
"18/07/17","14:00",0.0,36.4,53.7,1006.2,213.3,1.2,3.3,186.9,0.51,25.5,30.8,"13:56:56",1
"18/07/17","14:10",0.0,36.3,54.0,1006.2,215.9,1.5,3.5,203.5,0.50,25.5,30.8,"14:04:24",1
"18/07/17","14:20",0.0,36.6,56.2,1006.4,205.5,1.7,3.4,218.4,0.50,26.5,30.8,"14:10:02",1
"18/07/17","14:30",0.0,36.4,58.7,1006.4,212.9,1.1,3.4,229.6,0.44,27.0,31.1,"14:20:08",1
"18/07/17","14:40",0.0,36.2,56.3,1006.2,210.4,1.2,2.9,200.6,0.40,26.2,30.9,"14:32:24",1
"18/07/17","14:50",0.0,35.8,55.0,1006.2,206.2,1.3,4.3,219.6,0.28,25.4,31.0,"14:41:04",1
"18/07/17","15:00",0.0,36.5,54.4,1005.5,193.8,1.0,3.2,219.2,0.35,25.8,31.0,"14:53:12",1
"18/07/17","15:10",0.0,36.8,53.9,1006.0,211.6,1.5,3.5,207.9,0.42,26.0,31.2,"15:03:04",1
"18/07/17","15:20",0.0,36.6,53.5,1005.7,196.2,2.0,3.9,219.2,0.39,25.7,31.2,"15:11:44",1
"18/07/17","15:30",0.0,36.9,56.7,1005.7,197.5,1.3,3.5,221.0,0.38,26.9,31.2,"15:25:44",1
"18/07/17","15:40",0.0,36.0,54.6,1005.5,211.5,1.2,2.9,217.1,0.26,25.4,31.1,"15:34:56",1
"18/07/17","15:50",0.0,36.6,53.7,1005.5,207.0,1.3,2.9,217.0,0.28,25.7,30.9,"15:42:00",1
"18/07/17","16:00",0.0,36.0,56.1,1005.0,208.2,1.5,2.8,209.5,0.14,25.9,31.1,"15:52:48",1
"18/07/17","16:10",0.0,35.5,59.3,1005.0,296.2,0.7,2.1,222.0,0.10,26.4,31.2,"16:01:12",1
"18/07/17","16:20",0.0,35.6,55.2,1004.8,234.0,0.7,2.5,245.1,0.09,25.3,31.0,"16:15:36",1
"18/07/17","16:30",0.0,35.3,57.0,1004.8,231.3,0.6,2.1,206.2,0.08,25.5,30.8,"16:20:40",1
"18/07/17","16:40",0.0,35.5,56.3,1004.5,318.2,0.3,1.0,305.7,0.06,25.5,31.0,"16:36:00",1
"18/07/17","16:50",0.0,35.4,60.3,1004.3,25.4,0.6,1.4,355.0,0.05,26.6,30.9,"16:40:32",1
"18/07/17","17:00",0.0,35.1,63.6,1004.1,3.9,0.6,1.6,344.9,0.08,27.2,30.7,"16:55:20",1
"18/07/17","17:10",0.0,34.6,64.3,1004.3,13.9,0.2,1.2,129.5,0.05,26.9,30.7,"17:03:20",1
"18/07/17","17:20",0.0,34.7,60.0,1003.8,55.7,1.0,3.2,12.9,0.04,25.8,30.4,"17:17:52",1
"18/07/17","17:30",0.0,34.7,61.4,1004.1,76.6,1.1,2.6,63.5,0.03,26.2,30.4,"17:21:20",1
"18/07/17","17:40",0.0,34.3,63.0,1003.4,66.3,0.8,2.4,359.6,0.01,26.3,30.4,"17:33:04",1
"18/07/17","17:50",0.0,34.1,63.4,1003.6,48.4,0.7,2.2,6.2,0.01,26.2,30.2,"17:46:24",1
"18/07/17","18:00",0.0,33.7,65.3,1003.4,354.2,1.0,1.9,339.3,0.00,26.3,30.2,"17:59:52",1
"18/07/17","18:10",0.0,32.9,68.6,1003.4,340.8,2.0,4.4,345.2,0.01,26.4,30.2,"18:06:56",1
"18/07/17","18:20",0.0,31.6,74.5,1003.4,320.7,1.6,4.5,335.7,0.01,26.5,30.0,"18:10:24",1
"18/07/17","18:30",0.0,31.0,76.3,1003.1,306.4,0.7,1.9,345.8,0.01,26.4,29.9,"18:22:56",1
"18/07/17","18:40",0.0,31.0,75.7,1002.6,329.3,1.0,2.2,341.0,0.02,26.2,29.7,"18:32:24",1
"18/07/17","18:50",0.0,31.2,75.5,1002.6,313.2,1.3,2.6,330.8,0.01,26.4,29.9,"18:42:24",1
"18/07/17","19:00",0.0,31.1,76.6,1002.4,261.2,0.7,1.8,252.9,0.00,26.5,29.6,"18:59:20",1
"18/07/17","19:10",0.0,30.6,79.3,1002.4,285.7,0.7,1.8,239.1,0.00,26.6,29.6,"19:01:12",1
"18/07/17","19:20",0.0,30.1,81.1,1002.6,256.8,0.7,1.9,311.2,0.00,26.5,29.5,"19:19:20",1
"18/07/17","19:30",0.0,29.7,83.1,1001.9,264.7,0.8,1.8,238.0,0.00,26.6,29.4,"19:21:12",1
"18/07/17","19:40",0.0,29.6,84.0,1002.2,303.7,0.6,1.6,319.9,0.00,26.6,29.4,"19:31:20",1
"18/07/17","19:50",0.0,29.5,84.1,1002.2,268.7,0.5,1.4,253.6,0.00,26.6,29.2,"19:44:40",1
"18/07/17","20:00",0.0,29.4,84.4,1002.2,269.2,0.5,1.3,241.3,0.00,26.5,29.2,"19:57:52",1
"18/07/17","20:10",0.0,29.2,84.7,1002.6,256.8,0.5,1.4,304.5,0.00,26.4,29.3,"20:00:16",1
"18/07/17","20:20",0.0,29.1,85.0,1003.1,299.5,0.3,1.2,342.8,0.00,26.4,29.0,"20:18:48",1
"18/07/17","20:30",0.0,28.9,85.3,1003.1,274.8,0.3,1.2,251.9,0.00,26.2,28.8,"20:27:52",1
"18/07/17","20:40",0.0,28.7,85.5,1003.4,263.2,0.7,1.8,296.8,0.00,26.1,28.9,"20:33:52",1
"18/07/17","20:50",0.0,28.6,85.5,1003.4,275.1,0.6,1.4,244.4,0.00,26.0,28.9,"20:43:36",1
"18/07/17","21:00",0.0,28.4,85.7,1003.6,279.3,0.6,1.2,282.6,0.00,25.8,28.8,"20:50:16",1
"18/07/17","21:10",0.0,28.2,85.8,1003.6,276.1,0.6,1.6,257.3,0.00,25.6,28.5,"21:01:12",1
"18/07/17","21:20",0.0,28.2,85.8,1003.6,276.8,0.8,2.2,258.6,0.00,25.6,28.6,"21:10:56",1
"18/07/17","21:30",0.0,28.1,85.8,1003.8,270.1,0.8,1.7,265.0,0.00,25.5,28.6,"21:20:24",1
"18/07/17","21:40",0.0,28.1,86.1,1003.6,275.0,0.6,1.6,324.7,0.00,25.6,28.4,"21:33:36",1
"18/07/17","21:50",0.0,28.0,86.0,1003.8,274.2,0.7,1.4,278.4,0.00,25.5,28.3,"21:42:56",1
"18/07/17","22:00",0.0,28.0,85.9,1003.8,302.7,0.8,1.8,329.8,0.00,25.5,28.4,"21:56:48",1
"18/07/17","22:10",0.0,27.8,85.9,1003.8,276.9,0.6,1.6,323.9,0.00,25.3,28.4,"22:00:32",1
"18/07/17","22:20",0.0,27.8,85.7,1004.1,274.2,0.8,1.7,308.4,0.00,25.2,28.2,"22:13:20",1
"18/07/17","22:30",0.0,27.7,85.8,1004.1,297.0,0.7,1.4,337.2,0.00,25.1,28.1,"22:24:48",1
"18/07/17","22:40",0.0,27.5,86.0,1004.1,276.1,0.7,1.8,332.0,0.00,25.0,28.2,"22:32:32",1
"18/07/17","22:50",0.0,27.4,86.4,1004.1,277.3,0.7,1.1,265.9,0.00,25.0,27.9,"22:42:40",1
"18/07/17","23:00",0.0,27.3,86.5,1004.3,276.6,0.7,1.3,236.7,0.00,24.9,27.8,"22:59:20",1
"18/07/17","23:10",0.0,27.2,86.4,1004.3,266.9,0.6,1.0,258.6,0.00,24.8,27.8,"23:00:08",1
"18/07/17","23:20",0.0,27.1,86.8,1004.3,283.6,0.7,1.1,305.9,0.00,24.7,27.7,"23:15:12",1
"18/07/17","23:30",0.0,27.1,86.8,1004.3,275.1,0.8,1.3,285.3,0.00,24.7,27.7,"23:23:36",1
"18/07/17","23:40",0.0,26.9,87.3,1004.5,275.5,0.7,1.4,257.9,0.00,24.6,27.8,"23:32:48",1
"18/07/17","23:50",0.0,26.8,87.6,1004.8,276.4,0.7,1.4,312.2,0.00,24.6,27.9,"23:48:56",1
"18/07/17","24:00",0.0,26.7,87.8,1004.5,294.1,0.7,1.6,296.2,0.00,24.5,27.7,"23:58:56",1
